Time,TemperatureF,DewpointF,PressureIn,WindDirection,WindDirectionDegrees,WindSpeedMPH,WindSpeedGustMPH,Humidity,HourlyPrecipIn,Conditions,Clouds,dailyrainin,SoftwareType,DateUTC
2013-02-11 00:04:00,31.5,23.5,29.84,WNW,286,16.0,23.0,72,0.00,,SKC,0.00,VWS V13.01,2013-02-11 06:04:00,
2013-02-11 00:09:00,31.5,23.5,29.84,NW,316,19.0,24.0,72,0.00,,SKC,0.00,VWS V13.01,2013-02-11 06:09:00,
2013-02-11 00:14:00,31.5,23.5,29.84,WNW,291,16.0,21.0,72,0.00,,SKC,0.00,VWS V13.01,2013-02-11 06:14:00,
2013-02-11 00:19:00,31.7,23.7,29.85,WNW,290,14.0,19.0,72,0.00,,SKC,0.00,VWS V13.01,2013-02-11 06:19:00,
2013-02-11 00:24:00,31.7,23.4,29.86,NW,307,22.0,26.0,71,0.00,,SKC,0.00,VWS V13.01,2013-02-11 06:24:00,
2013-02-11 00:29:00,31.9,23.6,29.86,WNW,293,11.0,23.0,71,0.00,,SKC,0.00,VWS V13.01,2013-02-11 06:29:00,
2013-02-11 00:34:00,32.0,23.3,29.86,WNW,294,16.0,30.0,70,0.00,,SKC,0.00,VWS V13.01,2013-02-11 06:34:00,
2013-02-11 00:39:00,32.0,23.3,29.87,NW,320,22.0,25.0,70,0.00,,SKC,0.00,VWS V13.01,2013-02-11 06:39:00,
2013-02-11 00:44:00,32.1,23.1,29.87,NW,309,1.0,16.0,69,0.00,,SKC,0.00,VWS V13.01,2013-02-11 06:44:00,
2013-02-11 00:49:00,32.1,23.1,29.87,WNW,284,6.0,26.0,69,0.00,,SKC,0.00,VWS V13.01,2013-02-11 06:49:00,
2013-02-11 00:54:00,32.1,23.1,29.87,NW,307,28.0,28.0,69,0.00,,SKC,0.00,VWS V13.01,2013-02-11 06:54:00,
2013-02-11 00:59:00,32.1,23.1,29.87,North,351,2.0,13.0,69,0.00,,SKC,0.00,VWS V13.01,2013-02-11 06:59:00,
2013-02-11 01:04:00,32.0,23.3,29.87,WNW,283,12.0,23.0,70,0.00,,SKC,0.00,VWS V13.01,2013-02-11 07:04:00,
2013-02-11 01:09:00,32.0,23.3,29.88,WNW,291,19.0,31.0,70,0.00,,SKC,0.00,VWS V13.01,2013-02-11 07:09:00,
2013-02-11 01:14:00,32.0,23.3,29.87,WNW,302,14.0,30.0,70,0.00,,SKC,0.00,VWS V13.01,2013-02-11 07:14:00,
2013-02-11 01:19:00,32.0,23.3,29.88,WNW,293,24.0,31.0,70,0.00,,SKC,0.00,VWS V13.01,2013-02-11 07:19:00,
2013-02-11 01:24:00,31.9,23.6,29.88,WNW,283,19.0,31.0,71,0.00,,SKC,0.00,VWS V13.01,2013-02-11 07:24:00,
2013-02-11 01:30:00,31.8,23.8,29.89,NW,308,15.0,21.0,72,0.00,,SKC,0.00,VWS V13.01,2013-02-11 07:30:00,
2013-02-11 01:35:00,31.7,24.0,29.89,WNW,298,1.0,14.0,73,0.00,,SKC,0.00,VWS V13.01,2013-02-11 07:35:00,
2013-02-11 01:41:00,31.6,24.3,29.89,NW,309,16.0,23.0,74,0.00,,SKC,0.00,VWS V13.01,2013-02-11 07:41:00,
2013-02-11 01:46:00,31.4,24.4,29.89,NW,310,23.0,25.0,75,0.00,,SKC,0.00,VWS V13.01,2013-02-11 07:46:00,
2013-02-11 01:51:00,31.4,24.7,29.90,WNW,287,9.0,19.0,76,0.00,,SKC,0.00,VWS V13.01,2013-02-11 07:51:00,
2013-02-11 01:56:00,31.3,24.9,29.90,West,264,12.0,20.0,77,0.00,,SKC,0.00,VWS V13.01,2013-02-11 07:56:00,
2013-02-11 02:02:00,31.3,24.9,29.90,WNW,298,9.0,20.0,77,0.00,,SKC,0.00,VWS V13.01,2013-02-11 08:02:00,
2013-02-11 02:07:00,31.2,25.1,29.90,West,274,12.0,21.0,78,0.00,,SKC,0.00,VWS V13.01,2013-02-11 08:07:00,
2013-02-11 02:12:00,31.2,25.1,29.90,WNW,288,11.0,22.0,78,0.00,,SKC,0.00,VWS V13.01,2013-02-11 08:12:00,
2013-02-11 02:17:00,31.2,25.5,29.91,West,276,15.0,26.0,79,0.00,,SKC,0.00,VWS V13.01,2013-02-11 08:17:00,
2013-02-11 02:23:00,31.4,25.4,29.91,NW,307,12.0,21.0,78,0.00,,SKC,0.00,VWS V13.01,2013-02-11 08:23:00,
2013-02-11 02:28:00,31.4,25.0,29.91,West,268,17.0,18.0,77,0.00,,SKC,0.00,VWS V13.01,2013-02-11 08:28:00,
2013-02-11 02:33:00,31.5,24.8,29.92,WNW,282,23.0,23.0,76,0.00,,SKC,0.00,VWS V13.01,2013-02-11 08:33:00,
2013-02-11 02:38:00,31.5,24.8,29.92,NW,325,18.0,24.0,76,0.00,,SKC,0.00,VWS V13.01,2013-02-11 08:38:00,
2013-02-11 02:43:00,31.4,24.4,29.92,West,277,18.0,21.0,75,0.00,,SKC,0.00,VWS V13.01,2013-02-11 08:43:00,
2013-02-11 02:48:00,31.4,24.4,29.92,WNW,282,9.0,24.0,75,0.00,,SKC,0.00,VWS V13.01,2013-02-11 08:48:00,
2013-02-11 02:53:00,31.3,24.3,29.93,WNW,291,14.0,28.0,75,0.00,,SKC,0.00,VWS V13.01,2013-02-11 08:53:00,
2013-02-11 02:58:00,31.2,23.9,29.93,WNW,302,23.0,24.0,74,0.00,,SKC,0.00,VWS V13.01,2013-02-11 08:58:00,
2013-02-11 03:03:00,31.2,23.9,29.93,NNW,335,12.0,21.0,74,0.00,,SKC,0.00,VWS V13.01,2013-02-11 09:03:00,
2013-02-11 03:08:00,31.1,23.8,29.93,WNW,299,18.0,29.0,74,0.00,,SKC,0.00,VWS V13.01,2013-02-11 09:08:00,
2013-02-11 03:13:00,31.1,23.8,29.93,WNW,284,13.0,28.0,74,0.00,,SKC,0.00,VWS V13.01,2013-02-11 09:13:00,
2013-02-11 03:18:00,31.1,23.8,29.94,WNW,302,22.0,28.0,74,0.00,,SKC,0.00,VWS V13.01,2013-02-11 09:18:00,
2013-02-11 03:23:00,31.0,23.7,29.94,WNW,302,20.0,22.0,74,0.00,,SKC,0.00,VWS V13.01,2013-02-11 09:23:00,
2013-02-11 03:29:00,30.9,23.6,29.94,West,276,20.0,28.0,74,0.00,,SKC,0.00,VWS V13.01,2013-02-11 09:29:00,
2013-02-11 03:34:00,30.8,23.2,29.94,NW,313,15.0,29.0,73,0.00,,SKC,0.00,VWS V13.01,2013-02-11 09:34:00,
2013-02-11 03:39:00,30.8,23.2,29.94,WNW,303,17.0,19.0,73,0.00,,SKC,0.00,VWS V13.01,2013-02-11 09:39:00,
2013-02-11 03:44:00,30.8,23.2,29.94,WNW,295,12.0,26.0,73,0.00,,SKC,0.00,VWS V13.01,2013-02-11 09:44:00,
2013-02-11 03:50:00,30.7,23.1,29.94,NNW,338,22.0,23.0,73,0.00,,SKC,0.00,VWS V13.01,2013-02-11 09:50:00,
2013-02-11 03:55:00,30.7,23.1,29.94,WNW,287,0.0,17.0,73,0.00,,SKC,0.00,VWS V13.01,2013-02-11 09:55:00,
2013-02-11 04:00:00,30.7,23.1,29.94,NW,322,10.0,23.0,73,0.00,,SKC,0.00,VWS V13.01,2013-02-11 10:00:00,
2013-02-11 04:05:00,30.6,23.0,29.94,NW,304,12.0,16.0,73,0.00,,SKC,0.00,VWS V13.01,2013-02-11 10:05:00,
2013-02-11 04:10:00,30.6,23.0,29.95,NW,304,19.0,28.0,73,0.00,,SKC,0.00,VWS V13.01,2013-02-11 10:10:00,
2013-02-11 04:15:00,30.6,23.0,29.95,NW,314,12.0,19.0,73,0.00,,SKC,0.00,VWS V13.01,2013-02-11 10:15:00,
2013-02-11 04:20:00,30.6,23.3,29.96,WNW,287,16.0,16.0,74,0.00,,SKC,0.00,VWS V13.01,2013-02-11 10:20:00,
2013-02-11 04:25:00,30.5,23.2,29.96,WNW,282,6.0,24.0,74,0.00,,SKC,0.00,VWS V13.01,2013-02-11 10:25:00,
2013-02-11 04:30:00,30.4,22.8,29.96,WNW,293,16.0,19.0,73,0.00,,SKC,0.00,VWS V13.01,2013-02-11 10:30:00,
2013-02-11 04:35:00,30.3,22.4,29.97,WNW,302,20.0,24.0,72,0.00,,SKC,0.00,VWS V13.01,2013-02-11 10:35:00,
2013-02-11 04:40:00,30.3,22.4,29.97,WNW,299,8.0,17.0,72,0.00,,SKC,0.00,VWS V13.01,2013-02-11 10:40:00,
2013-02-11 04:45:00,30.2,22.3,29.98,NW,304,13.0,18.0,72,0.00,,SKC,0.00,VWS V13.01,2013-02-11 10:45:00,
2013-02-11 04:50:00,30.2,22.6,29.98,NW,306,9.0,17.0,73,0.00,,SKC,0.00,VWS V13.01,2013-02-11 10:50:00,
2013-02-11 04:55:00,30.1,22.8,29.98,WNW,291,0.0,20.0,74,0.00,,SKC,0.00,VWS V13.01,2013-02-11 10:55:00,
2013-02-11 05:00:00,30.1,22.8,29.99,WNW,282,1.0,14.0,74,0.00,,SKC,0.00,VWS V13.01,2013-02-11 11:00:00,
2013-02-11 05:05:00,29.9,22.6,29.99,WNW,295,9.0,18.0,74,0.00,,SKC,0.00,VWS V13.01,2013-02-11 11:05:00,
2013-02-11 05:10:00,29.8,22.9,29.99,WNW,293,29.0,29.0,75,0.00,,SKC,0.00,VWS V13.01,2013-02-11 11:10:00,
2013-02-11 05:15:00,29.8,22.2,30.00,NNW,329,5.0,19.0,73,0.00,,SKC,0.00,VWS V13.01,2013-02-11 11:15:00,
2013-02-11 05:20:00,29.8,22.2,30.00,WNW,293,13.0,18.0,73,0.00,,SKC,0.00,VWS V13.01,2013-02-11 11:20:00,
2013-02-11 05:25:00,29.7,22.1,30.01,West,270,12.0,15.0,73,0.00,,SKC,0.00,VWS V13.01,2013-02-11 11:25:00,
2013-02-11 05:30:00,29.6,22.4,30.01,NW,312,1.0,8.0,74,0.00,,SKC,0.00,VWS V13.01,2013-02-11 11:30:00,
2013-02-11 05:35:00,29.5,22.2,30.01,WNW,296,0.0,7.0,74,0.00,,SKC,0.00,VWS V13.01,2013-02-11 11:35:00,
2013-02-11 05:40:00,29.4,22.1,30.02,NW,304,14.0,21.0,74,0.00,,SKC,0.00,VWS V13.01,2013-02-11 11:40:00,
2013-02-11 05:46:00,29.6,22.7,30.02,WNW,300,12.0,19.0,75,0.00,,SKC,0.00,VWS V13.01,2013-02-11 11:46:00,
2013-02-11 05:51:00,29.7,22.8,30.03,NW,309,15.0,16.0,75,0.00,,SKC,0.00,VWS V13.01,2013-02-11 11:51:00,
2013-02-11 05:56:00,29.8,22.9,30.02,WNW,287,0.0,18.0,75,0.00,,SKC,0.00,VWS V13.01,2013-02-11 11:56:00,
2013-02-11 06:01:00,29.8,22.9,30.03,WNW,303,14.0,18.0,75,0.00,,SKC,0.00,VWS V13.01,2013-02-11 12:01:00,
2013-02-11 06:06:00,29.9,23.0,30.02,WNW,301,5.0,18.0,75,0.00,,SKC,0.00,VWS V13.01,2013-02-11 12:06:00,
2013-02-11 06:11:00,29.9,23.0,30.03,WNW,290,7.0,14.0,75,0.00,,SKC,0.00,VWS V13.01,2013-02-11 12:11:00,
2013-02-11 06:17:00,30.0,23.0,30.03,WNW,293,8.0,11.0,75,0.00,,SKC,0.00,VWS V13.01,2013-02-11 12:17:00,
2013-02-11 06:22:00,30.0,23.4,30.03,WNW,293,8.0,13.0,76,0.00,,SKC,0.00,VWS V13.01,2013-02-11 12:22:00,
2013-02-11 06:27:00,30.0,23.4,30.03,NW,316,17.0,20.0,76,0.00,,SKC,0.00,VWS V13.01,2013-02-11 12:27:00,
2013-02-11 06:32:00,30.0,23.4,30.03,WNW,294,1.0,11.0,76,0.00,,SKC,0.00,VWS V13.01,2013-02-11 12:32:00,
2013-02-11 06:38:00,30.0,23.4,30.03,NW,304,8.0,22.0,76,0.00,,SKC,0.00,VWS V13.01,2013-02-11 12:38:00,
2013-02-11 06:44:00,30.1,23.1,30.03,NW,304,16.0,21.0,75,0.00,,SKC,0.00,VWS V13.01,2013-02-11 12:44:00,
2013-02-11 06:50:00,30.1,22.8,30.03,WNW,289,16.0,22.0,74,0.00,,SKC,0.00,VWS V13.01,2013-02-11 12:50:00,
2013-02-11 06:55:00,30.2,22.9,30.03,NW,320,11.0,19.0,74,0.00,,SKC,0.00,VWS V13.01,2013-02-11 12:55:00,
2013-02-11 07:00:00,30.2,22.9,30.03,West,273,0.0,22.0,74,0.00,,SKC,0.00,VWS V13.01,2013-02-11 13:00:00,
2013-02-11 07:06:00,30.2,22.9,30.03,WNW,295,15.0,22.0,74,0.00,,SKC,0.00,VWS V13.01,2013-02-11 13:06:00,
2013-02-11 07:12:00,30.2,22.6,30.05,West,262,13.0,22.0,73,0.00,,SKC,0.00,VWS V13.01,2013-02-11 13:12:00,
2013-02-11 07:17:00,30.3,22.7,30.05,WNW,301,13.0,23.0,73,0.00,,SKC,0.00,VWS V13.01,2013-02-11 13:17:00,
2013-02-11 07:22:00,30.2,22.6,30.05,WNW,302,15.0,23.0,73,0.00,,SKC,0.00,VWS V13.01,2013-02-11 13:22:00,
2013-02-11 07:28:00,30.2,22.6,30.05,NW,312,1.0,11.0,73,0.00,,SKC,0.00,VWS V13.01,2013-02-11 13:28:00,
2013-02-11 07:33:00,30.1,22.5,30.05,NW,306,15.0,16.0,73,0.00,,SKC,0.00,VWS V13.01,2013-02-11 13:33:00,
2013-02-11 07:38:00,30.0,22.4,30.05,WNW,295,2.0,13.0,73,0.00,,SKC,0.00,VWS V13.01,2013-02-11 13:38:00,
2013-02-11 07:44:00,29.9,22.3,30.06,WNW,289,18.0,24.0,73,0.00,,SKC,0.00,VWS V13.01,2013-02-11 13:44:00,
2013-02-11 07:49:00,29.9,22.3,30.06,WNW,299,6.0,18.0,73,0.00,,SKC,0.00,VWS V13.01,2013-02-11 13:49:00,
2013-02-11 07:54:00,29.9,22.3,30.06,WNW,299,9.0,15.0,73,0.00,,SKC,0.00,VWS V13.01,2013-02-11 13:54:00,
2013-02-11 07:59:00,29.9,22.3,30.06,NW,310,5.0,19.0,73,0.00,,SKC,0.00,VWS V13.01,2013-02-11 13:59:00,
2013-02-11 08:04:00,29.9,22.3,30.06,WNW,294,11.0,18.0,73,0.00,,SKC,0.00,VWS V13.01,2013-02-11 14:04:00,
2013-02-11 08:09:00,29.9,22.6,30.06,NW,314,1.0,1.0,74,0.00,,SKC,0.00,VWS V13.01,2013-02-11 14:09:00,
2013-02-11 08:15:00,29.9,22.6,30.06,NW,312,1.0,15.0,74,0.00,,SKC,0.00,VWS V13.01,2013-02-11 14:15:00,
2013-02-11 08:20:00,29.9,22.6,30.07,WNW,303,0.0,1.0,74,0.00,,SKC,0.00,VWS V13.01,2013-02-11 14:20:00,
2013-02-11 08:25:00,30.1,22.8,30.07,NW,305,0.0,9.0,74,0.00,,SKC,0.00,VWS V13.01,2013-02-11 14:25:00,
2013-02-11 08:30:00,30.1,22.8,30.07,NW,322,6.0,18.0,74,0.00,,SKC,0.00,VWS V13.01,2013-02-11 14:30:00,
2013-02-11 08:36:00,30.1,22.8,30.08,WNW,293,11.0,13.0,74,0.00,,SKC,0.00,VWS V13.01,2013-02-11 14:36:00,
2013-02-11 08:41:00,30.2,22.9,30.08,NNW,328,10.0,25.0,74,0.00,,SKC,0.00,VWS V13.01,2013-02-11 14:41:00,
2013-02-11 08:46:00,30.1,22.2,30.08,NW,320,19.0,19.0,72,0.00,,SKC,0.00,VWS V13.01,2013-02-11 14:46:00,
2013-02-11 08:51:00,30.1,22.2,30.08,WNW,291,12.0,18.0,72,0.00,,SKC,0.00,VWS V13.01,2013-02-11 14:51:00,
2013-02-11 08:56:00,30.1,22.2,30.09,WNW,284,4.0,11.0,72,0.00,,SKC,0.00,VWS V13.01,2013-02-11 14:56:00,
2013-02-11 09:01:00,30.3,22.4,30.10,WNW,290,0.0,12.0,72,0.00,,SKC,0.00,VWS V13.01,2013-02-11 15:01:00,
2013-02-11 09:06:00,30.5,22.6,30.10,WNW,284,7.0,21.0,72,0.00,,SKC,0.00,VWS V13.01,2013-02-11 15:06:00,
2013-02-11 09:11:00,30.6,22.3,30.10,North,358,12.0,19.0,71,0.00,,SKC,0.00,VWS V13.01,2013-02-11 15:11:00,
2013-02-11 09:17:00,30.6,22.7,30.10,WNW,284,11.0,24.0,72,0.00,,SKC,0.00,VWS V13.01,2013-02-11 15:17:00,
2013-02-11 09:22:00,30.6,22.7,30.11,NW,319,12.0,18.0,72,0.00,,SKC,0.00,VWS V13.01,2013-02-11 15:22:00,
2013-02-11 09:27:00,30.7,22.8,30.11,West,273,16.0,18.0,72,0.00,,SKC,0.00,VWS V13.01,2013-02-11 15:27:00,
2013-02-11 09:32:00,30.7,22.4,30.11,WNW,292,1.0,23.0,71,0.00,,SKC,0.00,VWS V13.01,2013-02-11 15:32:00,
2013-02-11 09:37:00,30.7,22.4,30.11,West,280,13.0,18.0,71,0.00,,SKC,0.00,VWS V13.01,2013-02-11 15:37:00,
2013-02-11 09:42:00,30.8,22.5,30.12,WNW,302,11.0,15.0,71,0.00,,SKC,0.00,VWS V13.01,2013-02-11 15:42:00,
2013-02-11 09:47:00,30.9,22.6,30.12,NNW,347,0.0,8.0,71,0.00,,SKC,0.00,VWS V13.01,2013-02-11 15:47:00,
2013-02-11 09:53:00,31.1,22.8,30.12,NW,324,1.0,2.0,71,0.00,,SKC,0.00,VWS V13.01,2013-02-11 15:53:00,
2013-02-11 09:58:00,31.3,22.7,30.12,WNW,297,16.0,18.0,70,0.00,,SKC,0.00,VWS V13.01,2013-02-11 15:58:00,
2013-02-11 10:03:00,31.3,22.7,30.12,NNW,340,7.0,21.0,70,0.00,,SKC,0.00,VWS V13.01,2013-02-11 16:03:00,
2013-02-11 10:08:00,31.3,22.7,30.12,NW,312,6.0,8.0,70,0.00,,SKC,0.00,VWS V13.01,2013-02-11 16:08:00,
2013-02-11 10:13:00,31.5,22.9,30.12,WNW,285,7.0,15.0,70,0.00,,SKC,0.00,VWS V13.01,2013-02-11 16:13:00,
2013-02-11 10:18:00,31.5,22.9,30.13,NW,307,0.0,2.0,70,0.00,,SKC,0.00,VWS V13.01,2013-02-11 16:18:00,
2013-02-11 10:23:00,31.7,23.0,30.13,WNW,282,12.0,17.0,70,0.00,,SKC,0.00,VWS V13.01,2013-02-11 16:23:00,
2013-02-11 10:29:00,32.0,23.3,30.13,NW,305,18.0,20.0,70,0.00,,SKC,0.00,VWS V13.01,2013-02-11 16:29:00,
2013-02-11 10:35:00,31.9,22.9,30.13,NW,312,11.0,11.0,69,0.00,,SKC,0.00,VWS V13.01,2013-02-11 16:35:00,
2013-02-11 10:40:00,32.4,23.4,30.13,WNW,300,13.0,19.0,69,0.00,,SKC,0.00,VWS V13.01,2013-02-11 16:40:00,
2013-02-11 10:45:00,32.8,23.4,30.13,WNW,301,1.0,17.0,68,0.00,,SKC,0.00,VWS V13.01,2013-02-11 16:45:00,
2013-02-11 10:51:00,33.3,23.5,30.13,NNW,330,13.0,17.0,67,0.00,,SKC,0.00,VWS V13.01,2013-02-11 16:51:00,
2013-02-11 10:56:00,33.5,23.7,30.13,NW,304,0.0,9.0,67,0.00,,SKC,0.00,VWS V13.01,2013-02-11 16:56:00,
2013-02-11 11:01:00,33.7,23.6,30.13,West,274,11.0,22.0,66,0.00,,SKC,0.00,VWS V13.01,2013-02-11 17:01:00,
2013-02-11 11:06:00,33.4,23.3,30.13,NNW,328,8.0,19.0,66,0.00,,SKC,0.00,VWS V13.01,2013-02-11 17:06:00,
2013-02-11 11:12:00,33.8,23.7,30.13,NW,314,2.0,15.0,66,0.00,,SKC,0.00,VWS V13.01,2013-02-11 17:12:00,
2013-02-11 11:17:00,34.3,23.8,30.14,WNW,292,14.0,18.0,65,0.00,,SKC,0.00,VWS V13.01,2013-02-11 17:17:00,
2013-02-11 11:23:00,34.1,23.2,30.14,NW,315,0.0,5.0,64,0.00,,SKC,0.00,VWS V13.01,2013-02-11 17:23:00,
2013-02-11 11:28:00,34.1,23.2,30.14,WNW,285,9.0,19.0,64,0.00,,SKC,0.00,VWS V13.01,2013-02-11 17:28:00,
2013-02-11 11:33:00,34.6,23.7,30.14,WNW,291,0.0,13.0,64,0.00,,SKC,0.00,VWS V13.01,2013-02-11 17:33:00,
2013-02-11 11:39:00,35.3,24.7,30.14,WNW,298,15.0,15.0,65,0.00,,SKC,0.00,VWS V13.01,2013-02-11 17:39:00,
2013-02-11 11:44:00,35.6,23.9,30.14,WNW,291,2.0,16.0,62,0.00,,SKC,0.00,VWS V13.01,2013-02-11 17:44:00,
2013-02-11 11:49:00,35.6,24.3,30.14,WNW,299,16.0,18.0,63,0.00,,SKC,0.00,VWS V13.01,2013-02-11 17:49:00,
2013-02-11 11:54:00,35.8,24.5,30.14,NW,306,13.0,22.0,63,0.00,,SKC,0.00,VWS V13.01,2013-02-11 17:54:00,
2013-02-11 12:00:00,35.7,24.0,30.14,NW,304,7.0,15.0,62,0.00,,SKC,0.00,VWS V13.01,2013-02-11 18:00:00,
2013-02-11 12:06:00,35.9,23.8,30.14,West,281,24.0,24.0,61,0.00,,SKC,0.00,VWS V13.01,2013-02-11 18:06:00,
2013-02-11 12:11:00,35.7,24.0,30.14,WNW,292,2.0,19.0,62,0.00,,SKC,0.00,VWS V13.01,2013-02-11 18:11:00,
2013-02-11 12:17:00,35.7,24.0,30.14,NW,305,8.0,18.0,62,0.00,,SKC,0.00,VWS V13.01,2013-02-11 18:17:00,
2013-02-11 12:22:00,36.1,24.7,30.13,West,265,0.0,2.0,63,0.00,,SKC,0.00,VWS V13.01,2013-02-11 18:22:00,
2013-02-11 12:28:00,36.9,24.7,30.13,West,269,1.0,11.0,61,0.00,,SKC,0.00,VWS V13.01,2013-02-11 18:28:00,
2013-02-11 12:33:00,37.1,24.9,30.13,West,276,9.0,14.0,61,0.00,,SKC,0.00,VWS V13.01,2013-02-11 18:33:00,
2013-02-11 12:38:00,37.3,24.7,30.13,NW,317,0.0,15.0,60,0.00,,SKC,0.00,VWS V13.01,2013-02-11 18:38:00,
2013-02-11 12:44:00,37.3,24.3,30.13,WNW,295,0.0,1.0,59,0.00,,SKC,0.00,VWS V13.01,2013-02-11 18:44:00,
2013-02-11 12:49:00,36.8,24.2,30.13,WNW,299,11.0,13.0,60,0.00,,SKC,0.00,VWS V13.01,2013-02-11 18:49:00,
2013-02-11 12:54:00,37.1,24.9,30.13,WNW,299,1.0,1.0,61,0.00,,SKC,0.00,VWS V13.01,2013-02-11 18:54:00,
2013-02-11 12:59:00,37.7,25.1,30.13,West,270,0.0,3.0,60,0.00,,SKC,0.00,VWS V13.01,2013-02-11 18:59:00,
2013-02-11 13:04:00,37.5,24.5,30.12,WNW,292,0.0,19.0,59,0.00,,SKC,0.00,VWS V13.01,2013-02-11 19:04:00,
2013-02-11 13:10:00,38.1,25.9,30.12,NW,316,0.0,1.0,61,0.00,,SKC,0.00,VWS V13.01,2013-02-11 19:10:00,
2013-02-11 13:15:00,39.1,25.6,30.12,WNW,300,0.0,17.0,58,0.00,,SKC,0.00,VWS V13.01,2013-02-11 19:15:00,
2013-02-11 13:21:00,39.4,25.5,30.13,NNW,336,0.0,12.0,57,0.00,,SKC,0.00,VWS V13.01,2013-02-11 19:21:00,
2013-02-11 13:27:00,39.3,25.4,30.13,NW,323,10.0,11.0,57,0.00,,SKC,0.00,VWS V13.01,2013-02-11 19:27:00,
2013-02-11 13:32:00,38.7,24.8,30.14,West,272,8.0,14.0,57,0.00,,SKC,0.00,VWS V13.01,2013-02-11 19:32:00,
2013-02-11 13:38:00,38.1,25.1,30.14,West,272,6.0,6.0,59,0.00,,SKC,0.00,VWS V13.01,2013-02-11 19:38:00,
2013-02-11 13:44:00,37.1,24.5,30.14,WNW,297,14.0,14.0,60,0.00,,SKC,0.00,VWS V13.01,2013-02-11 19:44:00,
2013-02-11 13:50:00,36.8,24.6,30.14,WNW,288,0.0,14.0,61,0.00,,SKC,0.00,VWS V13.01,2013-02-11 19:50:00,
2013-02-11 13:55:00,36.7,24.5,30.14,West,279,8.0,14.0,61,0.00,,SKC,0.00,VWS V13.01,2013-02-11 19:55:00,
2013-02-11 14:01:00,36.0,24.3,30.14,WNW,299,9.0,16.0,62,0.00,,SKC,0.00,VWS V13.01,2013-02-11 20:01:00,
2013-02-11 14:06:00,35.9,24.5,30.14,West,268,12.0,15.0,63,0.00,,SKC,0.00,VWS V13.01,2013-02-11 20:06:00,
2013-02-11 14:11:00,35.6,24.6,30.14,WNW,290,11.0,17.0,64,0.00,,SKC,0.00,VWS V13.01,2013-02-11 20:11:00,
2013-02-11 14:16:00,35.6,24.6,30.14,NW,304,18.0,18.0,64,0.00,,SKC,0.00,VWS V13.01,2013-02-11 20:16:00,
2013-02-11 14:21:00,35.7,24.7,30.14,NW,305,2.0,2.0,64,0.00,,SKC,0.00,VWS V13.01,2013-02-11 20:21:00,
2013-02-11 14:27:00,35.8,24.8,30.14,West,276,2.0,2.0,64,0.00,,SKC,0.00,VWS V13.01,2013-02-11 20:27:00,
2013-02-11 14:32:00,35.7,24.7,30.14,WNW,288,9.0,14.0,64,0.00,,SKC,0.00,VWS V13.01,2013-02-11 20:32:00,
2013-02-11 14:37:00,35.7,24.7,30.14,WNW,284,0.0,13.0,64,0.00,,SKC,0.00,VWS V13.01,2013-02-11 20:37:00,
2013-02-11 14:42:00,35.7,24.7,30.14,WNW,301,0.0,11.0,64,0.00,,SKC,0.00,VWS V13.01,2013-02-11 20:42:00,
2013-02-11 14:48:00,36.1,25.5,30.14,NW,309,1.0,1.0,65,0.00,,SKC,0.00,VWS V13.01,2013-02-11 20:48:00,
2013-02-11 14:53:00,36.1,24.7,30.14,WNW,297,1.0,13.0,63,0.00,,SKC,0.00,VWS V13.01,2013-02-11 20:53:00,
2013-02-11 14:58:00,36.0,25.0,30.13,WNW,295,14.0,15.0,64,0.00,,SKC,0.00,VWS V13.01,2013-02-11 20:58:00,
2013-02-11 15:04:00,36.2,24.8,30.13,WNW,282,14.0,19.0,63,0.00,,SKC,0.00,VWS V13.01,2013-02-11 21:04:00,
2013-02-11 15:09:00,36.2,25.2,30.13,WNW,302,0.0,1.0,64,0.00,,SKC,0.00,VWS V13.01,2013-02-11 21:09:00,
2013-02-11 15:14:00,36.4,25.0,30.13,NNW,336,1.0,2.0,63,0.00,,SKC,0.00,VWS V13.01,2013-02-11 21:14:00,
2013-02-11 15:20:00,36.4,25.0,30.13,West,271,2.0,18.0,63,0.00,,SKC,0.00,VWS V13.01,2013-02-11 21:20:00,
2013-02-11 15:25:00,36.7,25.7,30.13,WNW,298,12.0,20.0,64,0.00,,SKC,0.00,VWS V13.01,2013-02-11 21:25:00,
2013-02-11 15:30:00,37.0,25.6,30.13,WNW,300,9.0,13.0,63,0.00,,SKC,0.00,VWS V13.01,2013-02-11 21:30:00,
2013-02-11 15:36:00,36.8,25.0,30.13,West,276,0.0,14.0,62,0.00,,SKC,0.00,VWS V13.01,2013-02-11 21:36:00,
2013-02-11 15:41:00,36.6,25.2,30.13,WNW,299,11.0,13.0,63,0.00,,SKC,0.00,VWS V13.01,2013-02-11 21:41:00,
2013-02-11 15:46:00,36.5,25.1,30.13,NW,312,0.0,14.0,63,0.00,,SKC,0.00,VWS V13.01,2013-02-11 21:46:00,
2013-02-11 15:51:00,36.5,25.1,30.13,WNW,299,9.0,12.0,63,0.00,,SKC,0.00,VWS V13.01,2013-02-11 21:51:00,
2013-02-11 15:56:00,37.0,25.6,30.13,NW,305,19.0,19.0,63,0.00,,SKC,0.00,VWS V13.01,2013-02-11 21:56:00,
2013-02-11 16:02:00,37.1,25.7,30.13,WNW,292,1.0,13.0,63,0.00,,SKC,0.00,VWS V13.01,2013-02-11 22:02:00,
2013-02-11 16:07:00,37.3,25.1,30.13,WNW,299,0.0,11.0,61,0.00,,SKC,0.00,VWS V13.01,2013-02-11 22:07:00,
2013-02-11 16:12:00,37.0,24.8,30.13,WNW,297,0.0,2.0,61,0.00,,SKC,0.00,VWS V13.01,2013-02-11 22:12:00,
2013-02-11 16:17:00,37.1,25.3,30.13,WNW,302,2.0,2.0,62,0.00,,SKC,0.00,VWS V13.01,2013-02-11 22:17:00,
2013-02-11 16:23:00,37.4,25.6,30.13,NNW,341,0.0,4.0,62,0.00,,SKC,0.00,VWS V13.01,2013-02-11 22:23:00,
2013-02-11 16:28:00,37.5,25.3,30.13,NNE,16,0.0,9.0,61,0.00,,SKC,0.00,VWS V13.01,2013-02-11 22:28:00,
2013-02-11 16:34:00,37.4,25.2,30.13,NNW,331,1.0,2.0,61,0.00,,SKC,0.00,VWS V13.01,2013-02-11 22:34:00,
2013-02-11 16:39:00,37.2,25.0,30.13,WNW,294,5.0,12.0,61,0.00,,SKC,0.00,VWS V13.01,2013-02-11 22:39:00,
2013-02-11 16:44:00,36.8,25.0,30.13,WNW,302,0.0,0.0,62,0.00,,SKC,0.00,VWS V13.01,2013-02-11 22:44:00,
2013-02-11 16:49:00,36.9,25.5,30.13,NW,305,9.0,14.0,63,0.00,,SKC,0.00,VWS V13.01,2013-02-11 22:49:00,
2013-02-11 16:55:00,37.3,25.9,30.13,NW,311,0.0,4.0,63,0.00,,SKC,0.00,VWS V13.01,2013-02-11 22:55:00,
2013-02-11 17:01:00,37.6,25.8,30.13,WNW,293,1.0,2.0,62,0.00,,SKC,0.00,VWS V13.01,2013-02-11 23:01:00,
2013-02-11 17:06:00,37.3,25.5,30.13,NW,323,0.0,0.0,62,0.00,,SKC,0.00,VWS V13.01,2013-02-11 23:06:00,
2013-02-11 17:11:00,37.1,25.3,30.13,NW,307,0.0,2.0,62,0.00,,SKC,0.00,VWS V13.01,2013-02-11 23:11:00,
2013-02-11 17:16:00,36.9,25.1,30.13,NW,311,0.0,0.0,62,0.00,,SKC,0.00,VWS V13.01,2013-02-11 23:16:00,
2013-02-11 17:21:00,36.9,25.5,30.13,West,277,1.0,8.0,63,0.00,,SKC,0.00,VWS V13.01,2013-02-11 23:21:00,
2013-02-11 17:26:00,36.6,25.2,30.13,NW,305,0.0,1.0,63,0.00,,SKC,0.00,VWS V13.01,2013-02-11 23:26:00,
2013-02-11 17:31:00,36.5,25.1,30.13,NW,305,0.0,2.0,63,0.00,,SKC,0.00,VWS V13.01,2013-02-11 23:31:00,
2013-02-11 17:36:00,36.2,24.8,30.13,WNW,297,1.0,1.0,63,0.00,,SKC,0.00,VWS V13.01,2013-02-11 23:36:00,
2013-02-11 17:41:00,35.7,24.7,30.12,NW,312,0.0,1.0,64,0.00,,SKC,0.00,VWS V13.01,2013-02-11 23:41:00,
2013-02-11 17:46:00,35.3,24.4,30.13,NW,310,0.0,0.0,64,0.00,,SKC,0.00,VWS V13.01,2013-02-11 23:46:00,
2013-02-11 17:52:00,34.9,24.7,30.13,NW,316,0.0,0.0,66,0.00,,SKC,0.00,VWS V13.01,2013-02-11 23:52:00,
2013-02-11 17:57:00,34.5,24.7,30.12,NW,316,0.0,0.0,67,0.00,,SKC,0.00,VWS V13.01,2013-02-11 23:57:00,
2013-02-11 18:02:00,34.3,24.5,30.13,NW,317,0.0,0.0,67,0.00,,SKC,0.00,VWS V13.01,2013-02-12 00:02:00,
2013-02-11 18:07:00,34.0,24.6,30.13,NW,318,0.0,0.0,68,0.00,,SKC,0.00,VWS V13.01,2013-02-12 00:07:00,
2013-02-11 18:12:00,33.7,24.3,30.13,NW,326,0.0,0.0,68,0.00,,SKC,0.00,VWS V13.01,2013-02-12 00:12:00,
2013-02-11 18:17:00,33.4,24.3,30.14,NNW,328,0.0,1.0,69,0.00,,SKC,0.00,VWS V13.01,2013-02-12 00:17:00,
2013-02-11 18:22:00,33.1,24.4,30.14,NNW,328,0.0,0.0,70,0.00,,SKC,0.00,VWS V13.01,2013-02-12 00:22:00,
2013-02-11 18:27:00,32.9,24.2,30.14,NNW,341,0.0,1.0,70,0.00,,SKC,0.00,VWS V13.01,2013-02-12 00:27:00,
2013-02-11 18:33:00,32.5,23.8,30.14,NNW,341,0.0,0.0,70,0.00,,SKC,0.00,VWS V13.01,2013-02-12 00:33:00,
2013-02-11 18:38:00,32.3,24.0,30.15,NNW,341,0.0,0.0,71,0.00,,SKC,0.00,VWS V13.01,2013-02-12 00:38:00,
2013-02-11 18:43:00,32.1,23.8,30.15,NNW,341,0.0,1.0,71,0.00,,SKC,0.00,VWS V13.01,2013-02-12 00:43:00,
2013-02-11 18:48:00,31.9,23.9,30.15,NNW,343,0.0,1.0,72,0.00,,SKC,0.00,VWS V13.01,2013-02-12 00:48:00,
2013-02-11 18:53:00,31.7,23.7,30.16,North,349,0.0,1.0,72,0.00,,SKC,0.00,VWS V13.01,2013-02-12 00:53:00,
2013-02-11 18:58:00,31.5,23.9,30.16,NNW,348,0.0,0.0,73,0.00,,SKC,0.00,VWS V13.01,2013-02-12 00:58:00,
2013-02-11 19:03:00,31.3,23.7,30.16,North,354,0.0,0.0,73,0.00,,SKC,0.00,VWS V13.01,2013-02-12 01:03:00,
2013-02-11 19:08:00,31.2,23.6,30.16,North,354,0.0,0.0,73,0.00,,SKC,0.00,VWS V13.01,2013-02-12 01:08:00,
2013-02-11 19:14:00,31.0,23.4,30.16,North,353,0.0,1.0,73,0.00,,SKC,0.00,VWS V13.01,2013-02-12 01:14:00,
2013-02-11 19:19:00,30.8,23.5,30.16,North,353,0.0,0.0,74,0.00,,SKC,0.00,VWS V13.01,2013-02-12 01:19:00,
2013-02-11 19:24:00,30.6,23.3,30.16,North,353,0.0,0.0,74,0.00,,SKC,0.00,VWS V13.01,2013-02-12 01:24:00,
2013-02-11 19:29:00,30.5,23.2,30.16,North,353,0.0,0.0,74,0.00,,SKC,0.00,VWS V13.01,2013-02-12 01:29:00,
2013-02-11 19:34:00,30.3,23.0,30.16,North,353,0.0,0.0,74,0.00,,SKC,0.00,VWS V13.01,2013-02-12 01:34:00,
2013-02-11 19:39:00,30.2,22.9,30.16,North,353,0.0,0.0,74,0.00,,SKC,0.00,VWS V13.01,2013-02-12 01:39:00,
2013-02-11 19:44:00,30.0,23.0,30.16,North,353,0.0,0.0,75,0.00,,SKC,0.00,VWS V13.01,2013-02-12 01:44:00,
2013-02-11 19:49:00,29.9,23.0,30.16,North,353,0.0,0.0,75,0.00,,SKC,0.00,VWS V13.01,2013-02-12 01:49:00,
2013-02-11 19:55:00,29.7,22.8,30.16,North,353,0.0,0.0,75,0.00,,SKC,0.00,VWS V13.01,2013-02-12 01:55:00,
2013-02-11 20:00:00,29.6,23.0,30.17,North,353,0.0,0.0,76,0.00,,SKC,0.00,VWS V13.01,2013-02-12 02:00:00,
2013-02-11 20:05:00,29.5,22.9,30.16,North,353,0.0,0.0,76,0.00,,SKC,0.00,VWS V13.01,2013-02-12 02:05:00,
2013-02-11 20:11:00,29.3,22.7,30.16,North,353,0.0,0.0,76,0.00,,SKC,0.00,VWS V13.01,2013-02-12 02:11:00,
2013-02-11 20:16:00,29.2,22.6,30.16,North,353,0.0,0.0,76,0.00,,SKC,0.00,VWS V13.01,2013-02-12 02:16:00,
2013-02-11 20:21:00,29.0,22.7,30.16,North,353,0.0,0.0,77,0.00,,SKC,0.00,VWS V13.01,2013-02-12 02:21:00,
2013-02-11 20:26:00,28.9,22.6,30.16,North,353,0.0,0.0,77,0.00,,SKC,0.00,VWS V13.01,2013-02-12 02:26:00,
2013-02-11 20:31:00,28.8,22.5,30.16,North,353,0.0,0.0,77,0.00,,SKC,0.00,VWS V13.01,2013-02-12 02:31:00,
2013-02-11 20:37:00,28.7,22.4,30.15,North,353,0.0,0.0,77,0.00,,SKC,0.00,VWS V13.01,2013-02-12 02:37:00,
2013-02-11 20:42:00,28.5,22.2,30.15,North,353,0.0,0.0,77,0.00,,SKC,0.00,VWS V13.01,2013-02-12 02:42:00,
2013-02-11 20:47:00,28.4,22.4,30.15,North,353,0.0,0.0,78,0.00,,SKC,0.00,VWS V13.01,2013-02-12 02:47:00,
2013-02-11 20:53:00,28.3,22.3,30.16,North,353,0.0,0.0,78,0.00,,SKC,0.00,VWS V13.01,2013-02-12 02:53:00,
2013-02-11 20:58:00,28.2,22.2,30.16,North,353,0.0,0.0,78,0.00,,SKC,0.00,VWS V13.01,2013-02-12 02:58:00,
2013-02-11 21:04:00,28.1,22.1,30.15,North,353,0.0,0.0,78,0.00,,SKC,0.00,VWS V13.01,2013-02-12 03:04:00,
2013-02-11 21:09:00,28.0,22.0,30.15,North,353,0.0,0.0,78,0.00,,SKC,0.00,VWS V13.01,2013-02-12 03:09:00,
2013-02-11 21:14:00,27.9,21.9,30.15,North,353,0.0,0.0,78,0.00,,SKC,0.00,VWS V13.01,2013-02-12 03:14:00,
2013-02-11 21:19:00,27.8,21.9,30.15,North,353,0.0,0.0,78,0.00,,SKC,0.00,VWS V13.01,2013-02-12 03:19:00,
2013-02-11 21:24:00,27.7,21.8,30.15,North,353,0.0,0.0,78,0.00,,SKC,0.00,VWS V13.01,2013-02-12 03:24:00,
2013-02-11 21:29:00,27.6,21.6,30.15,North,353,0.0,0.0,78,0.00,,SKC,0.00,VWS V13.01,2013-02-12 03:29:00,
2013-02-11 21:34:00,27.5,21.5,30.16,North,353,0.0,0.0,78,0.00,,SKC,0.00,VWS V13.01,2013-02-12 03:34:00,
2013-02-11 21:39:00,27.4,21.5,30.16,North,353,0.0,0.0,78,0.00,,SKC,0.00,VWS V13.01,2013-02-12 03:39:00,
2013-02-11 21:44:00,27.3,21.4,30.16,North,353,0.0,0.0,78,0.00,,SKC,0.00,VWS V13.01,2013-02-12 03:44:00,
2013-02-11 21:49:00,27.1,21.2,30.16,North,353,0.0,0.0,78,0.00,,SKC,0.00,VWS V13.01,2013-02-12 03:49:00,
2013-02-11 21:55:00,27.0,21.1,30.16,North,353,0.0,0.0,78,0.00,,SKC,0.00,VWS V13.01,2013-02-12 03:55:00,
2013-02-11 22:00:00,26.9,21.3,30.16,North,353,0.0,0.0,79,0.00,,SKC,0.00,VWS V13.01,2013-02-12 04:00:00,
2013-02-11 22:05:00,26.8,20.9,30.16,North,353,0.0,0.0,78,0.00,,SKC,0.00,VWS V13.01,2013-02-12 04:05:00,
2013-02-11 22:11:00,26.6,21.0,30.16,North,353,0.0,0.0,79,0.00,,SKC,0.00,VWS V13.01,2013-02-12 04:11:00,
2013-02-11 22:16:00,26.5,20.9,30.16,North,353,0.0,0.0,79,0.00,,SKC,0.00,VWS V13.01,2013-02-12 04:16:00,
2013-02-11 22:21:00,26.3,20.7,30.16,North,353,0.0,0.0,79,0.00,,SKC,0.00,VWS V13.01,2013-02-12 04:21:00,
2013-02-11 22:26:00,26.2,20.9,30.16,North,353,0.0,0.0,80,0.00,,SKC,0.00,VWS V13.01,2013-02-12 04:26:00,
2013-02-11 22:32:00,26.1,20.8,30.16,North,353,0.0,0.0,80,0.00,,SKC,0.00,VWS V13.01,2013-02-12 04:32:00,
2013-02-11 22:37:00,26.0,20.7,30.16,North,353,0.0,0.0,80,0.00,,SKC,0.00,VWS V13.01,2013-02-12 04:37:00,
2013-02-11 22:43:00,25.8,20.5,30.17,North,353,0.0,0.0,80,0.00,,SKC,0.00,VWS V13.01,2013-02-12 04:43:00,
2013-02-11 22:48:00,25.8,20.8,30.17,North,353,0.0,0.0,81,0.00,,SKC,0.00,VWS V13.01,2013-02-12 04:48:00,
2013-02-11 22:53:00,25.8,20.8,30.17,North,353,0.0,0.0,81,0.00,,SKC,0.00,VWS V13.01,2013-02-12 04:53:00,
2013-02-11 22:58:00,25.8,20.8,30.17,North,353,0.0,0.0,81,0.00,,SKC,0.00,VWS V13.01,2013-02-12 04:58:00,
2013-02-11 23:00:00,25.8,20.8,30.17,North,353,0.0,0.0,81,0.00,,SKC,0.00,VWS V13.01,2013-02-12 05:00:00,
2013-02-11 23:01:00,25.7,20.7,30.17,North,353,0.0,0.0,81,0.00,,SKC,0.00,VWS V13.01,2013-02-12 05:01:00,
2013-02-11 23:02:00,25.7,20.7,30.17,North,353,0.0,0.0,81,0.00,,SKC,0.00,VWS V13.01,2013-02-12 05:02:00,
2013-02-11 23:07:00,25.5,20.5,30.17,North,353,0.0,0.0,81,0.00,,SKC,0.00,VWS V13.01,2013-02-12 05:07:00,
2013-02-11 23:10:00,25.4,20.4,30.17,North,353,0.0,0.0,81,0.00,,SKC,0.00,VWS V13.01,2013-02-12 05:10:00,
2013-02-11 23:15:00,25.2,20.2,30.18,North,353,0.0,0.0,81,0.00,,SKC,0.00,VWS V13.01,2013-02-12 05:15:00,
2013-02-11 23:20:00,25.1,20.4,30.17,North,353,0.0,0.0,82,0.00,,SKC,0.00,VWS V13.01,2013-02-12 05:20:00,
2013-02-11 23:25:00,25.1,20.4,30.18,North,353,0.0,0.0,82,0.00,,SKC,0.00,VWS V13.01,2013-02-12 05:25:00,
2013-02-11 23:30:00,25.0,20.3,30.18,North,353,0.0,0.0,82,0.00,,SKC,0.00,VWS V13.01,2013-02-12 05:30:00,
2013-02-11 23:35:00,24.8,20.1,30.18,North,353,0.0,0.0,82,0.00,,SKC,0.00,VWS V13.01,2013-02-12 05:35:00,
2013-02-11 23:40:00,24.6,19.9,30.18,North,353,0.0,0.0,82,0.00,,SKC,0.00,VWS V13.01,2013-02-12 05:40:00,
2013-02-11 23:45:00,24.5,19.8,30.18,North,353,0.0,0.0,82,0.00,,SKC,0.00,VWS V13.01,2013-02-12 05:45:00,
2013-02-11 23:50:00,24.4,19.7,30.18,North,353,0.0,0.0,82,0.00,,SKC,0.00,VWS V13.01,2013-02-12 05:50:00,
2013-02-11 23:56:00,24.3,19.9,30.18,North,353,0.0,0.0,83,0.00,,SKC,0.00,VWS V13.01,2013-02-12 05:56:00,